#timestamp,LO_Frequency,Hit,Temp,Hum 
1493827215.9,286047009.1,N,0.0,0.0
1493827235.7,286047008.5,N,0.0,0.0
1493827255.6,286047008.1,N,0.0,0.0
1493827275.4,286047010.2,N,0.0,0.0
1493827295.2,286047007.8,N,0.0,0.0
1493827315.1,286047007.8,N,0.0,0.0
1493827316.0,286047007.8,N,0.0,0.0
1493827335.8,286047010.7,N,0.0,0.0
1493827355.6,286047007.7,N,0.0,0.0
1493827375.5,286047010.3,N,0.0,0.0
1493827395.3,286047012.4,N,0.0,0.0
1493827415.1,286047011.7,N,0.0,0.0
1493827435.9,286047011.5,N,0.0,0.0
1493827455.7,286047011.2,N,0.0,0.0
1493827475.5,286047014.0,N,0.0,0.0
1493827495.3,286047011.3,N,0.0,0.0
1493827515.2,286047013.4,N,0.0,0.0
1493827535.0,286047013.4,N,0.0,0.0
1493827535.9,286047013.4,N,0.0,0.0
1493827555.7,286047013.3,N,0.0,0.0
1493827575.6,286047015.5,N,0.0,0.0
1493827595.4,286047013.6,N,0.0,0.0
1493827615.2,286047011.6,N,0.0,0.0
1493827635.1,286047013.5,N,0.0,0.0
1493827636.0,286047013.5,N,0.0,0.0
1493827655.8,286047014.4,N,0.0,0.0
1493827675.6,286047015.9,N,0.0,0.0
1493827695.5,286047014.6,N,0.0,0.0
1493827715.3,286047014.6,N,0.0,0.0
1493827735.1,286047015.9,N,0.0,0.0
1493827755.9,286047018.2,N,0.0,0.0
1493827775.7,286047017.7,N,0.0,0.0
1493827795.5,286047016.5,N,0.0,0.0
1493827815.4,286047016.0,N,0.0,0.0
1493827835.2,286047016.1,N,0.0,0.0
1493827855.0,286047016.3,N,0.0,0.0
1493827855.9,286047016.3,N,0.0,0.0
1493827875.8,286047016.4,N,0.0,0.0
1493827895.6,286047017.6,N,0.0,0.0
1493827915.4,286047019.4,N,0.0,0.0
1493827935.3,286047020.0,N,0.0,0.0
1493827955.1,286047019.2,N,0.0,0.0
1493827956.0,286047019.2,N,0.0,0.0
1493827975.8,286047013.6,N,0.0,0.0
1493827995.7,286047015.6,N,0.0,0.0
1493828015.5,286047013.7,N,0.0,0.0
1493828035.3,286047017.0,N,0.0,0.0
1493828055.2,286047024.2,N,0.0,0.0
1493828075.9,286047032.9,N,0.0,0.0
1493828095.7,286047028.9,N,0.0,0.0
1493828115.5,286047024.0,N,0.0,0.0
1493828135.4,286047022.3,N,0.0,0.0
1493828155.2,286047024.6,N,0.0,0.0
1493828175.0,286047023.1,N,0.0,0.0
1493828175.9,286047023.1,N,0.0,0.0
1493828195.8,286047021.9,N,0.0,0.0
1493828215.6,286047023.1,N,0.0,0.0
1493828235.4,286047022.2,N,0.0,0.0
1493828255.3,286047024.5,N,0.0,0.0
1493828275.1,286047024.3,N,0.0,0.0
1493828295.8,286047026.4,N,0.0,0.0
1493828315.7,286047025.4,N,0.0,0.0
1493828335.5,286047024.2,N,0.0,0.0
1493828355.3,286047028.4,N,0.0,0.0
1493828375.2,286047023.3,N,0.0,0.0
1493828395.9,286047023.9,N,0.0,0.0
1493828415.7,286047026.7,N,0.0,0.0
1493828435.6,286047027.8,N,0.0,0.0
1493828455.4,286047029.2,N,0.0,0.0
1493828475.2,286047029.6,N,0.0,0.0
1493828495.1,286047029.5,N,0.0,0.0
1493828496.0,286047029.5,N,0.0,0.0
1493828515.8,286047029.9,N,0.0,0.0
1493828535.6,286047029.8,N,0.0,0.0
1493828555.5,286047027.3,N,0.0,0.0
1493828575.3,286047028.9,N,0.0,0.0
1493828595.1,286047028.8,N,0.0,0.0
1493828615.9,286047033.2,Y,0.0,0.0
1493828635.7,286047019.9,N,0.0,0.0
1493828655.5,286047017.3,N,0.0,0.0
1493828675.4,286047019.3,N,0.0,0.0
1493828695.2,286047020.4,N,0.0,0.0
1493828715.0,286047019.4,N,0.0,0.0
1493828715.9,286047019.4,N,0.0,0.0
1493828735.8,286047020.5,N,0.0,0.0
1493828755.6,286047021.2,N,0.0,0.0
1493828775.4,286047021.7,N,0.0,0.0
1493828795.3,286047018.8,N,0.0,0.0
1493828815.1,286047032.6,Y,0.0,0.0
1493828816.0,286047032.6,Y,0.0,0.0
1493828835.8,286046993.3,N,0.0,0.0
1493828855.7,286046992.4,N,0.0,0.0
1493828875.5,286046990.6,N,0.0,0.0
1493828895.3,286046988.7,N,0.0,0.0
1493828915.2,286046988.6,N,0.0,0.0
1493828935.9,286046993.1,N,0.0,0.0
1493828955.7,286046988.5,N,0.0,0.0
1493828975.6,286046990.4,N,0.0,0.0
1493828995.4,286046989.3,N,0.0,0.0
1493829015.2,286046989.4,N,0.0,0.0
1493829035.1,286046989.1,N,0.0,0.0
1493829036.0,286046989.1,N,0.0,0.0
1493829055.8,286046987.4,N,0.0,0.0
1493829075.6,286046988.5,N,0.0,0.0
1493829095.5,286046991.4,N,0.0,0.0
1493829115.3,286046991.1,N,0.0,0.0
1493829135.1,286046991.4,N,0.0,0.0
1493829155.9,286046989.7,N,0.0,0.0
1493829175.7,286046988.7,N,0.0,0.0
1493829195.5,286046989.1,N,0.0,0.0
1493829215.4,286046988.9,N,0.0,0.0
1493829235.2,286046991.4,N,0.0,0.0
1493829255.0,286046990.7,N,0.0,0.0
1493829255.9,286046990.7,N,0.0,0.0
1493829275.8,286046994.6,N,0.0,0.0
1493829295.6,286046991.9,N,0.0,0.0
1493829315.4,286046993.0,N,0.0,0.0
1493829335.3,286046992.9,N,0.0,0.0
1493829355.1,286046994.4,N,0.0,0.0
1493829356.0,286046994.4,N,0.0,0.0
1493829375.8,286046992.5,N,0.0,0.0
1493829395.7,286046990.1,N,0.0,0.0
1493829415.5,286046992.8,N,0.0,0.0
1493829435.3,286046992.9,N,0.0,0.0
1493829455.1,286046990.8,N,0.0,0.0
1493829475.9,286046991.0,N,0.0,0.0
1493829495.7,286046990.8,N,0.0,0.0
1493829515.5,286046992.5,N,0.0,0.0
1493829535.4,286046992.1,N,0.0,0.0
1493829555.2,286046993.3,N,0.0,0.0
1493829575.0,286046998.6,N,0.0,0.0
1493829575.9,286046998.6,N,0.0,0.0
1493829595.8,286047005.6,N,0.0,0.0
1493829615.6,286047023.6,N,0.0,0.0
1493829635.4,286047021.3,N,0.0,0.0
1493829655.3,286047020.1,N,0.0,0.0
1493829675.1,286047018.1,N,0.0,0.0
1493829695.8,286047013.4,N,0.0,0.0
1493829715.7,286047007.8,N,0.0,0.0
1493829735.5,286047010.3,N,0.0,0.0
1493829755.3,286047010.8,N,0.0,0.0
1493829775.2,286047007.7,N,0.0,0.0
1493829795.9,286047006.7,N,0.0,0.0
1493829815.7,286047007.0,N,0.0,0.0
1493829835.6,286047006.0,N,0.0,0.0
1493829855.4,286047002.3,N,0.0,0.0
1493829875.2,286047001.6,N,0.0,0.0
1493829895.1,286047000.8,N,0.0,0.0
1493829896.0,286047000.8,N,0.0,0.0
1493829915.8,286047003.7,N,0.0,0.0
1493829935.6,286047002.2,N,0.0,0.0
1493829955.5,286047002.0,N,0.0,0.0
1493829975.3,286047007.2,N,0.0,0.0
1493829995.1,286046997.2,N,0.0,0.0
1493830015.9,286047004.0,N,0.0,0.0
1493830035.7,286047005.9,N,0.0,0.0
1493830055.5,286046997.9,N,0.0,0.0
1493830075.3,286047010.0,N,0.0,0.0
1493830095.2,286047013.0,N,0.0,0.0
1493830115.0,286047029.9,N,0.0,0.0
1493830115.9,286047029.9,N,0.0,0.0
1493830135.7,286047023.6,N,0.0,0.0
1493830155.6,286047026.6,N,0.0,0.0
1493830175.4,286047026.2,N,0.0,0.0
1493830195.2,286047024.3,N,0.0,0.0
1493830215.1,286047029.6,N,0.0,0.0
1493830216.0,286047029.6,N,0.0,0.0
1493830235.8,286047034.8,N,0.0,0.0
1493830255.6,286047030.5,N,0.0,0.0
1493830275.5,286047032.6,N,0.0,0.0
1493830295.3,286047032.6,N,0.0,0.0
1493830315.1,286047033.3,N,0.0,0.0
1493830335.9,286047035.6,N,0.0,0.0
1493830355.7,286047036.7,N,0.0,0.0
1493830375.5,286047040.5,N,0.0,0.0
1493830395.4,286047039.9,N,0.0,0.0
1493830415.2,286047042.2,N,0.0,0.0
1493830435.0,286047045.1,N,0.0,0.0
1493830435.9,286047045.1,N,0.0,0.0
1493830455.8,286047049.7,N,0.0,0.0
1493830475.6,286047051.6,N,0.0,0.0
1493830495.4,286047051.8,N,0.0,0.0
1493830515.3,286047051.6,N,0.0,0.0
1493830535.1,286047049.4,N,0.0,0.0
1493830536.0,286047049.4,N,0.0,0.0
1493830555.8,286047050.2,N,0.0,0.0
1493830575.7,286047047.0,N,0.0,0.0
1493830595.5,286047048.8,N,0.0,0.0
1493830615.3,286047048.2,N,0.0,0.0
1493830635.2,286047051.5,N,0.0,0.0
1493830655.9,286047047.8,N,0.0,0.0
1493830675.7,286047052.0,N,0.0,0.0
1493830695.6,286047052.8,N,0.0,0.0
1493830715.4,286047056.5,N,0.0,0.0
1493830735.2,286047054.9,N,0.0,0.0
1493830755.0,286047054.7,N,0.0,0.0
1493830756.0,286047054.7,N,0.0,0.0
1493830775.8,286047056.6,N,0.0,0.0
1493830795.6,286047049.8,N,0.0,0.0
